User: anonymous   Login
Location: Bergen
(60.3910°N, 5.3250°E)
Time: 20:10:32
(UTC+01:00)
Language:

Cosmos 1943 - Orbit

View from above orbital plane
View from above orbital plane
View from above satellite
View from above satellite

Ground track
Ground track

The orbit data is extracted from the following two-line orbital elements,

1 19119U 88039A   17050.19615223 -.00000283  00000-0 -12107-3 0  9990
2 19119  71.0052 349.5628 0013756 242.4615 216.7985 14.15082372485403
Epoch (UTC): 19 February 2017 04:42:27
Eccentricity: 0.0013756
inclination: 71.0052°
perigee height: 832 km
apogee height: 852 km
right ascension of ascending node: 349.5628°
argument of perigee: 242.4615°
revolutions per day: 14.15082372
mean anomaly at epoch: 216.7985°
orbit number at epoch: 48540

The dashed part of the orbit path shows where the satellite is in the earth's shadow,  

DLR